• Em Portugal
  • Lista de países
  • Para 7 dias
  • Temperatura da água
  • Mapas de satélite
  • Mapa do tempo
  • Widgets de tempo
  • user-avatar
    Iniciar Sessão

    Previsão horária em Redlino

    Hoje, 21 Agosto, Terça-feira

    Tempo Temperatura Precipitação Vento Pressão Humidade
    00:00 +16°C° 0 mm 5 m/s 759 mmHg 81%
    01:00 +17°C° 0 mm 4 m/s 760 mmHg 83%
    02:00 +15°C° 0 mm 4 m/s 760 mmHg 85%
    03:00 +15°C° 0 mm 4 m/s 760 mmHg 86%
    04:00 +14°C° 0 mm 4 m/s 760 mmHg 87%
    05:00 +15°C° 0 mm 4 m/s 761 mmHg 83%
    06:00 +17°C° 0 mm 4 m/s 761 mmHg 78%
    07:00 +18°C° 0 mm 4 m/s 762 mmHg 72%
    08:00 +19°C° 0 mm 4 m/s 762 mmHg 68%
    09:00 +20°C° 0 mm 4 m/s 762 mmHg 64%
    10:00 +20°C° 0 mm 4 m/s 762 mmHg 59%
    11:00 +21°C° 0 mm 4 m/s 763 mmHg 58%
    12:00 +21°C° 0 mm 4 m/s 763 mmHg 57%
    13:00 +21°C° 0 mm 4 m/s 763 mmHg 56%
    14:00 +21°C° 0 mm 3 m/s 763 mmHg 56%
    15:00 +21°C° 0 mm 3 m/s 763 mmHg 56%
    16:00 +21°C° 0 mm 3 m/s 763 mmHg 56%
    17:00 +20°C° 0 mm 3 m/s 763 mmHg 62%
    18:00 +18°C° 0 mm 2 m/s 763 mmHg 68%
    19:00 +17°C° 0 mm 2 m/s 763 mmHg 73%
    20:00 +16°C° 0 mm 1 m/s 763 mmHg 77%
    21:00 +15°C° 0 mm 1 m/s 764 mmHg 80%
    22:00 +13°C° 0 mm 0 m/s 764 mmHg 83%
    23:00 +14°C° 0 mm 1 m/s 764 mmHg 84%

    Amanhã, 22 Agosto, Quarta-feira

    Tempo Temperatura Precipitação Vento Pressão Humidade
    00:00 +14°C° 0 mm 1 m/s 764 mmHg 85%
    01:00 +13°C° 0 mm 1 m/s 764 mmHg 86%
    02:00 +13°C° 0 mm 2 m/s 764 mmHg 86%
    03:00 +13°C° 0 mm 2 m/s 764 mmHg 87%
    04:00 +13°C° 0 mm 2 m/s 764 mmHg 87%
    05:00 +14°C° 0 mm 2 m/s 764 mmHg 83%
    06:00 +15°C° 0 mm 2 m/s 764 mmHg 79%
    07:00 +16°C° 0 mm 3 m/s 764 mmHg 75%
    08:00 +18°C° 0 mm 3 m/s 764 mmHg 67%
    09:00 +20°C° 0 mm 2 m/s 764 mmHg 60%
    10:00 +23°C° 0 mm 2 m/s 764 mmHg 52%
    11:00 +24°C° 0 mm 2 m/s 764 mmHg 49%
    12:00 +25°C° 0 mm 2 m/s 763 mmHg 45%
    13:00 +26°C° 0 mm 2 m/s 763 mmHg 41%
    14:00 +26°C° 0 mm 2 m/s 762 mmHg 40%
    15:00 +26°C° 0 mm 2 m/s 762 mmHg 40%
    16:00 +27°C° 0 mm 2 m/s 761 mmHg 40%
    17:00 +25°C° 0 mm 2 m/s 761 mmHg 46%
    18:00 +23°C° 0 mm 2 m/s 761 mmHg 51%
    19:00 +20°C° 0 mm 2 m/s 761 mmHg 57%
    20:00 +20°C° 0 mm 2 m/s 761 mmHg 58%
    21:00 +19°C° 0 mm 2 m/s 761 mmHg 59%
    22:00 +18°C° 0 mm 3 m/s 761 mmHg 61%
    23:00 +18°C° 0 mm 3 m/s 760 mmHg 62%

    Depois de amanhã, 23 Agosto, Quinta-feira

    Tempo Temperatura Precipitação Vento Pressão Humidade
    00:00 +18°C° 0 mm 3 m/s 760 mmHg 64%
    01:00 +17°C° 0 mm 3 m/s 760 mmHg 65%
    02:00 +17°C° 0 mm 3 m/s 759 mmHg 67%
    03:00 +17°C° 0 mm 4 m/s 759 mmHg 69%
    04:00 +17°C° 0 mm 4 m/s 759 mmHg 71%
    05:00 +18°C° 0 mm 4 m/s 759 mmHg 69%
    06:00 +19°C° 0 mm 4 m/s 759 mmHg 68%
    07:00 +20°C° 0 mm 4 m/s 758 mmHg 66%
    08:00 +22°C° 0 mm 3 m/s 758 mmHg 61%
    09:00 +25°C° 0 mm 3 m/s 758 mmHg 56%
    10:00 +27°C° 0 mm 3 m/s 758 mmHg 50%
    11:00 +28°C° 0 mm 3 m/s 758 mmHg 49%
    12:00 +28°C° 0 mm 3 m/s 757 mmHg 47%
    13:00 +29°C° 0 mm 3 m/s 757 mmHg 46%
    14:00 +29°C° 0 mm 2 m/s 757 mmHg 48%
    15:00 +28°C° 0 mm 2 m/s 756 mmHg 51%
    16:00 +28°C° 0 mm 2 m/s 756 mmHg 53%
    17:00 +27°C° 0 mm 2 m/s 756 mmHg 56%
    18:00 +26°C° 0 mm 2 m/s 756 mmHg 60%
    19:00 +25°C° 0 mm 2 m/s 755 mmHg 63%
    20:00 +24°C° 0 mm 2 m/s 755 mmHg 63%
    21:00 +24°C° 0 mm 2 m/s 755 mmHg 63%
    22:00 +24°C° 0 mm 3 m/s 755 mmHg 63%
    23:00 +24°C° 0 mm 3 m/s 755 mmHg 65%

    24 Agosto, Sexta-feira

    Tempo Temperatura Precipitação Vento Pressão Humidade
    00:00 +24°C° 0 mm 3 m/s 754 mmHg 66%
    01:00 +22°C° 0 mm 3 m/s 754 mmHg 67%
    02:00 +21°C° 0,2 mm 3 m/s 753 mmHg 72%
    03:00 +21°C° 0,2 mm 3 m/s 753 mmHg 78%
    04:00 +20°C° 0,2 mm 3 m/s 753 mmHg 83%
    05:00 +20°C° 0,2 mm 3 m/s 752 mmHg 82%
    06:00 +21°C° 0,2 mm 3 m/s 752 mmHg 81%
    07:00 +22°C° 0,2 mm 3 m/s 752 mmHg 80%
    08:00 +24°C° 0,2 mm 3 m/s 752 mmHg 75%
    09:00 +25°C° 0,2 mm 3 m/s 752 mmHg 71%
    10:00 +26°C° 0,2 mm 4 m/s 752 mmHg 67%
    11:00 +26°C° 0,8 mm 4 m/s 752 mmHg 67%
    12:00 +26°C° 0,8 mm 4 m/s 752 mmHg 68%
    13:00 +26°C° 0,8 mm 4 m/s 752 mmHg 69%
    14:00 +25°C° 0,8 mm 4 m/s 752 mmHg 71%
    15:00 +23°C° 0,8 mm 4 m/s 752 mmHg 74%
    16:00 +22°C° 0,8 mm 4 m/s 752 mmHg 76%
    17:00 +21°C° 0,2 mm 4 m/s 752 mmHg 79%
    18:00 +20°C° 0,2 mm 4 m/s 752 mmHg 81%
    19:00 +18°C° 0,2 mm 3 m/s 752 mmHg 84%
    20:00 +18°C° 0 mm 3 m/s 752 mmHg 84%
    21:00 +18°C° 0 mm 3 m/s 753 mmHg 85%
    22:00 +17°C° 0 mm 4 m/s 753 mmHg 85%
    23:00 +17°C° 0,1 mm 4 m/s 753 mmHg 84%

    25 Agosto, Sábado

    Tempo Temperatura Precipitação Vento Pressão Humidade
    00:00 +17°C° 0,1 mm 4 m/s 753 mmHg 83%
    01:00 +17°C° 0,1 mm 4 m/s 754 mmHg 82%
    02:00 +15°C° 0,1 mm 4 m/s 754 mmHg 82%
    03:00 +15°C° 0,1 mm 4 m/s 754 mmHg 82%
    04:00 +14°C° 0,1 mm 4 m/s 754 mmHg 82%
    05:00 +14°C° 0,1 mm 4 m/s 754 mmHg 81%
    06:00 +14°C° 0,1 mm 4 m/s 755 mmHg 80%
    07:00 +14°C° 0,1 mm 5 m/s 755 mmHg 78%
    08:00 +15°C° 0 mm 5 m/s 755 mmHg 71%
    09:00 +16°C° 0 mm 5 m/s 755 mmHg 64%
    10:00 +17°C° 0 mm 5 m/s 756 mmHg 56%
    11:00 +19°C° 0 mm 5 m/s 756 mmHg 51%
    12:00 +20°C° 0 mm 5 m/s 756 mmHg 46%
    13:00 +20°C° 0 mm 4 m/s 756 mmHg 41%
    14:00 +20°C° 0 mm 4 m/s 755 mmHg 41%
    15:00 +20°C° 0 mm 3 m/s 755 mmHg 40%
    16:00 +20°C° 0 mm 3 m/s 755 mmHg 40%
    17:00 +19°C° 0 mm 2 m/s 755 mmHg 43%
    18:00 +18°C° 0 mm 2 m/s 755 mmHg 47%
    19:00 +18°C° 0 mm 1 m/s 756 mmHg 50%
    20:00 +18°C° 0 mm 1 m/s 756 mmHg 51%
    21:00 +16°C° 0 mm 1 m/s 756 mmHg 52%
    22:00 +16°C° 0 mm 2 m/s 756 mmHg 53%
    23:00 +16°C° 0 mm 2 m/s 756 mmHg 54%

    26 Agosto, Domingo

    Tempo Temperatura Precipitação Vento Pressão Humidade
    00:00 +16°C° 0 mm 2 m/s 756 mmHg 55%
    01:00 +15°C° 0 mm 2 m/s 756 mmHg 57%
    02:00 +15°C° 0 mm 2 m/s 756 mmHg 60%
    03:00 +15°C° 0 mm 2 m/s 756 mmHg 63%
    04:00 +14°C° 0 mm 3 m/s 756 mmHg 66%
    05:00 +14°C° 0,1 mm 3 m/s 757 mmHg 68%
    06:00 +14°C° 0,1 mm 3 m/s 757 mmHg 71%
    07:00 +14°C° 0,1 mm 3 m/s 757 mmHg 74%
    08:00 +16°C° 0,1 mm 3 m/s 757 mmHg 70%
    09:00 +17°C° 0,1 mm 3 m/s 757 mmHg 66%
    10:00 +18°C° 0,1 mm 3 m/s 757 mmHg 62%
    11:00 +19°C° 0,1 mm 3 m/s 757 mmHg 58%
    12:00 +19°C° 0,1 mm 3 m/s 757 mmHg 54%
    13:00 +20°C° 0,1 mm 3 m/s 757 mmHg 50%
    14:00 +20°C° 0,1 mm 3 m/s 757 mmHg 50%
    15:00 +20°C° 0,1 mm 3 m/s 757 mmHg 50%
    16:00 +20°C° 0,1 mm 4 m/s 757 mmHg 51%
    17:00 +18°C° 0,1 mm 3 m/s 757 mmHg 57%
    18:00 +17°C° 0,1 mm 3 m/s 758 mmHg 64%
    19:00 +14°C° 0,1 mm 3 m/s 758 mmHg 71%
    20:00 +14°C° 0 mm 3 m/s 758 mmHg 74%
    21:00 +13°C° 0 mm 3 m/s 758 mmHg 77%
    22:00 +12°C° 0 mm 3 m/s 758 mmHg 80%
    23:00 +12°C° 0 mm 3 m/s 758 mmHg 81%
    Mostrar mais